AKDT,Max TemperatureF,Mean TemperatureF,Min TemperatureF,Max Dew PointF,MeanDew PointF,Min DewpointF,Max Humidity, Mean Humidity, Min Humidity, Max Sea Level PressureIn, Mean Sea Level PressureIn, Min Sea Level PressureIn, Max VisibilityMiles, Mean VisibilityMiles, Min VisibilityMiles, Max Wind SpeedMPH, Mean Wind SpeedMPH, Max Gust SpeedMPH,PrecipitationIn, CloudCover, Events, WindDirDegrees
2011-10-1,46,40,35,30,28,24,76,61,47,29.73,29.69,29.62,10,10,10,15,9,25,0.00,7,,81
2011-10-2,53,46,39,27,24,18,62,47,27,29.69,29.63,29.53,10,10,10,16,8,30,0.00,6,,149
2011-10-3,46,40,35,36,29,24,97,67,51,29.59,29.51,29.45,10,10,10,9,4,16,0.01,8,Rain,58
2011-10-4,46,35,21,33,28,20,100,85,47,29.61,29.50,29.44,10,8,0,7,2,,0.00,4,Fog,353
2011-10-5,48,34,19,26,22,16,93,68,39,29.66,29.58,29.45,10,10,10,23,6,31,0.00,3,,137
2011-10-6,46,41,36,31,25,19,73,54,42,29.55,29.47,29.40,10,10,10,15,9,23,0.00,7,,120
2011-10-7,42,38,33,38,33,25,97,88,67,29.81,29.69,29.55,10,10,9,6,3,,0.10,8,Rain,19
2011-10-8,43,35,27,34,30,26,100,84,65,29.83,29.74,29.54,10,10,10,6,3,,0.00,5,,331
2011-10-9,45,34,26,30,27,25,96,82,53,29.65,29.59,29.50,10,10,10,5,2,,0.00,4,Fog,10
2011-10-10,45,32,19,26,22,19,96,73,40,29.66,29.59,29.45,10,10,10,10,5,,0.00,3,Fog,358
2011-10-11,39,26,12,22,18,9,88,69,49,29.70,29.60,29.54,10,10,10,13,3,20,0.00,2,,352
2011-10-12,42,29,14,19,16,10,88,61,36,30.04,29.88,29.71,10,10,10,10,5,18,0.00,2,,357
2011-10-13,30,20,10,20,15,7,88,77,61,30.12,30.06,29.92,10,10,10,6,2,,0.00,5,,14
2011-10-14,44,35,26,25,23,20,81,55,45,29.94,29.67,29.50,10,10,10,29,15,37,0.01,5,,156
2011-10-15,46,40,35,35,29,24,82,64,53,29.64,29.55,29.46,10,10,10,12,5,16,0.00,7,Rain,120
2011-10-16,46,38,32,35,30,27,93,72,49,29.78,29.69,29.62,10,10,10,15,5,20,0.00,8,,129
2011-10-17,43,34,26,30,28,23,92,77,60,29.89,29.82,29.68,10,10,10,12,6,,0.00,5,,188
2011-10-18,37,32,27,30,25,21,100,81,59,29.69,29.58,29.42,10,9,2,8,5,20,0.00,6,Snow,241
2011-10-19,39,32,23,28,25,19,96,82,50,29.78,29.72,29.63,10,10,4,14,2,20,0.00,6,Snow,179
2011-10-20,37,24,10,19,16,9,92,72,46,29.82,29.76,29.63,10,10,10,8,1,,0.00,4,,129
2011-10-21,32,20,10,16,11,6,85,71,51,29.70,29.55,29.36,10,10,10,9,4,,0.00,2,,10
2011-10-22,33,20,7,17,12,5,92,76,52,29.66,29.58,29.44,10,10,10,5,2,,0.01,4,,345
2011-10-23,32,21,10,21,16,7,93,81,61,29.80,29.74,29.60,10,10,10,4,0,,0.00,6,,5
2011-10-24,41,32,24,28,24,19,81,67,53,29.79,29.70,29.58,10,10,10,28,11,47,0.00,5,,151
2011-10-25,46,40,33,33,29,25,89,66,46,29.59,29.24,28.95,10,10,10,31,20,43,0.00,5,Rain,155
2011-10-26,37,32,28,32,29,27,100,89,73,29.60,29.35,29.05,10,7,2,8,3,,0.05,8,Snow,214
2011-10-27,30,24,17,27,25,16,100,95,85,29.69,29.62,29.49,10,7,0,7,1,,0.00,6,Fog-Snow,350
2011-10-28,23,16,8,20,16,5,96,89,84,29.53,29.42,29.28,10,10,10,5,2,,0.00,7,,7
2011-10-29,21,15,9,19,14,6,93,90,86,29.39,29.28,29.16,10,10,3,10,5,,0.00,7,Fog-Snow,19
2011-10-30,25,18,10,23,18,9,96,89,84,29.65,29.46,29.28,10,6,1,6,2,,0.10,7,Fog-Snow,321
2011-10-31,23,20,17,21,18,15,93,91,85,29.76,29.66,29.52,10,6,1,6,3,,0.06,8,Snow,331